User: anonymous   Login
Location: Cluny
(50.9333°N, 112.8167°W)
Time: 21:58:22
(UTC-06:00)
Language:

Cosmos 1743 Rocket - Orbit

View from above orbital plane
View from above orbital plane
View from above satellite
View from above satellite

Ground track
Ground track

The orbit data is extracted from the following two-line orbital elements,

1 16720U 86034B   16148.78990758  .00000094  00000-0  86246-5 0  9994
2 16720  82.5556 240.7822 0018808 294.7657 184.6085 14.83228173622134
Epoch (UTC): 27 May 2016 18:57:28
Eccentricity: 0.0018808
inclination: 82.5556°
perigee height: 606 km
apogee height: 632 km
right ascension of ascending node: 240.7822°
argument of perigee: 294.7657°
revolutions per day: 14.83228173
mean anomaly at epoch: 184.6085°
orbit number at epoch: 62213

The dashed part of the orbit path shows where the satellite is in the earth's shadow,  

DLR